Retour au catalogue

LIJIAN-1 Y13 STAGE 4

ActifPO
NORAD 69102·ROCKET BODY·🇨🇳 China
Ce nom de satellite n'a pas encore été confirmé par des sources officielles.

Lancé May 15, 2026 depuis Jiuquan Satellite Launch Center

Loading…

Prochains Passages (prochaines 24 heures)

TLE

FraisSource: Space-Track

Époque: Sep 14, 2026, 13:15 UTC

1 69102U 26106F   26257.55212252  .00055961  31515-5  34326-3 0  9996
2 69102  97.4964 346.7314 0135335 283.0271  75.5909 15.65562433 19049

Suivez LIJIAN-1 Y13 STAGE 4 en temps réel avec AllMySat

Download on the App Store